Weather in Lebedyan

Russia / Lipetsk Oblast     53°01′13″N   39°07′52″E
temp.,
°C
wind,
m/s
gust,
m/s
humid.,
%
clouds,
%
prec.,
mm/h
press.,
hPa
HPBL,
m
22 april, thu
thu2200:00+6sw489296 0.1 1015396
03:00+5wsw479382 0.4 1016645
06:00+3sw35955 0.1 1018151
09:00+8sw46765 0.1 1019539
12:00+12sw575746 0.0 10191555
15:00+13ssw5756100 0.1 10181482
18:00+13ssw58636 0.1 1018608
21:00+9s498191 0.1 1020172
23 april, fri
fri2300:00+8ssw4108363 0.5 1019185
03:00+7ssw488315 0.8 1019127
06:00+7s488397 0.0 1019139
09:00+12s586559 0.1 1019471
12:00+16ssw694392 0.5 10172524
15:00+15s684832 0.5 10161950
18:00+14s585687 0.0 1014398
21:00+11sse61267100 0.0 1013300
24 april, sat
sat2400:00+11sse51275100 0.3 1011360
03:00+9ssw51288100 1.1 1010988
06:00+4wnw51096100 4.3 1011672
09:00+6wnw5777100 4.5 1011992
12:00+9w6855100 0.4 10101789
15:00+9wsw91051100 1.0 10101776
18:00+8wsw811510 0.2 10101876
21:00+4wsw510628 0.2 1011503
25 april, sun
sun2500:00+3wsw61078100 0.0 1011737
03:00+3w8147543 0.4 1012753
06:00+1w612845 0.0 1014513
09:00+5w711635 0.0 10151205
12:00+8w91343100 0.2 10152781
15:00+9wsw8124596 0.3 10152539
18:00+7wsw7105555 0.6 10151266
21:00+4wsw3877100 0.7 1015262
26 april, mon
mon2600:00+3w479798 1.2 1016542
03:00+2sw37905 1.2 1016214
06:00+1sw369250 0.0 1016192
09:00+5wsw346596 0.0 1016862
12:00+8wsw3447100 0.1 10152016
15:00+9wsw5643100 0.1 10142073
18:00+7wsw675191 0.1 10131457
21:00+4sw3872100 0.3 1013184